Wind_Speed
48 47 46 45 44 44 43 42 41 40 39 37 37 36 36 35 34 33 31 30 30 29 30 29 27 27 27 28 28 27 27 27 26 25 25 25 25 25 26 26 26 25 25 24 23 22 21 20 20 20 20 20 20 20 21 21 22 20 19 19 19 18 18 21 21 18 15 14 13 12 12 14 14 12 10 13 15 13 11 12 13 13 13 12 12
49 48 47 46 45 45 44 43 43 42 41 39 38 38 37 37 35 33 32 31 31 30 30 31 31 29 29 28 28 28 28 28 27 28 27 27 26 26 27 27 27 27 27 27 26 25 23 22 21 21 22 22 22 22 22 22 22 22 20 20 20 19 18 19 21 20 18 17 18 17 14 13 14 14 13 15 16 16 14 13 13 13 13 13 13
49 49 48 47 46 46 45 45 44 43 43 42 41 40 39 37 36 35 33 32 31 31 30 30 31 32 31 30 29 29 29 29 29 30 30 28 28 27 28 28 29 29 28 29 29 27 26 25 24 23 23 24 24 24 23 22 22 22 21 20 20 20 19 19 19 20 20 19 19 19 18 17 17 17 17 17 17 18 17 15 15 14 14 13 13
48 49 49 48 47 47 47 46 45 45 45 44 42 41 41 40 38 37 36 34 32 32 32 31 31 32 32 32 32 31 30 31 31 31 32 31 30 29 28 29 30 30 30 30 30 30 29 28 28 26 25 25 25 25 24 24 23 24 23 21 21 21 20 20 20 19 20 21 20 20 19 18 18 18 18 18 18 18 18 17 17 16 15 14 13
46 48 49 49 48 48 48 47 47 47 46 45 44 42 42 41 40 39 38 37 34 33 33 33 32 32 33 33 33 33 32 32 33 33 33 33 32 31 29 29 30 31 31 31 32 32 31 30 30 29 28 27 27 26 25 24 24 25 25 24 23 22 21 21 21 20 20 21 21 20 19 18 19 19 19 19 20 20 19 19 20 20 18 16 15
43 45 48 49 49 49 49 49 48 48 47 45 44 43 43 41 40 40 40 39 37 35 34 34 34 34 34 34 35 35 34 34 35 35 35 34 34 33 31 30 31 32 32 32 33 33 33 32 31 30 30 29 29 28 27 26 25 25 26 26 25 24 23 23 23 22 22 21 21 21 20 20 20 20 20 19 18 19 19 19 21 21 19 18 17
42 43 45 47 48 49 49 49 49 48 47 45 43 43 43 41 39 39 39 39 39 38 36 36 36 36 36 36 36 36 36 37 37 37 37 36 35 35 34 32 32 32 33 33 34 34 34 34 33 32 32 32 31 30 29 28 27 26 26 27 26 26 25 25 25 24 24 23 23 22 22 21 21 21 21 20 19 19 20 20 21 21 18 17 17
42 42 43 44 45 47 48 48 48 47 46 45 44 42 41 40 39 38 36 36 37 37 37 36 37 37 37 37 37 37 37 38 38 38 38 37 36 36 35 35 34 33 33 34 34 35 35 35 35 35 34 34 33 32 31 30 29 28 27 27 28 27 27 27 26 27 27 26 25 24 23 23 22 21 21 22 23 22 22 22 23 23 20 17 17
42 42 43 42 43 44 45 45 47 46 45 45 44 43 41 39 39 38 37 35 35 35 35 35 36 37 37 37 38 38 38 38 39 39 39 39 38 38 37 36 36 36 35 34 35 35 36 36 36 36 36 36 35 33 33 32 31 30 28 28 29 29 29 29 28 28 29 29 28 26 24 25 24 23 24 26 26 25 22 22 24 24 22 20 18
42 43 44 43 41 41 42 43 44 45 45 45 44 44 42 40 39 39 38 37 35 34 34 34 35 36 37 37 37 38 39 39 40 39 39 40 40 39 39 38 38 38 38 37 36 36 36 36 37 37 37 37 36 35 33 33 32 31 30 30 30 30 30 31 31 31 30 31 30 28 27 27 26 26 27 27 26 25 24 24 23 22 21 21 21
42 44 44 43 42 40 40 41 42 43 45 45 44 44 43 42 40 39 39 39 38 36 35 34 35 35 36 37 38 38 39 39 39 39 39 39 40 41 41 41 40 40 40 40 39 38 37 37 36 37 37 38 37 36 35 34 33 32 31 31 32 31 31 32 32 33 32 32 32 31 30 30 29 27 27 27 26 26 25 25 23 22 22 22 23
41 44 43 43 42 42 40 40 40 41 42 43 44 43 43 43 42 41 41 41 40 39 37 36 36 36 35 36 38 39 40 39 39 39 39 39 40 41 42 42 42 42 42 42 42 41 40 39 38 38 38 39 38 37 37 36 35 34 33 33 34 34 34 33 33 33 34 34 34 34 33 32 30 29 28 27 26 26 25 24 24 24 24 24 24
39 43 44 43 43 43 42 41 41 41 40 41 42 42 43 43 44 43 42 41 41 41 40 39 38 37 37 37 38 40 40 40 41 40 39 38 38 39 41 43 44 44 44 44 44 44 44 43 42 41 40 39 39 40 40 39 39 38 37 36 36 37 37 36 34 34 34 34 35 36 35 33 32 31 28 26 25 25 25 25 25 25 25 25 24
37 40 44 44 43 43 43 43 43 42 41 41 41 41 43 43 43 44 43 42 42 42 42 41 40 39 39 39 39 40 40 41 41 41 40 39 38 38 39 41 43 44 45 45 45 46 46 45 45 44 42 41 41 42 43 43 42 41 41 40 40 40 40 39 37 36 36 36 37 37 35 33 32 30 28 26 26 26 26 26 27 27 26 24 22
36 38 42 45 44 43 43 43 43 44 43 43 42 42 43 43 43 43 43 43 44 44 44 43 43 42 42 42 42 42 42 42 42 42 41 40 39 39 38 40 43 44 45 46 46 46 46 45 46 46 44 43 43 44 45 45 45 44 44 43 42 42 42 42 41 39 38 38 38 37 36 34 32 30 28 27 27 27 27 27 28 27 24 22 22
37 37 40 43 43 42 42 42 43 43 43 43 43 44 44 44 44 44 43 43 43 44 45 45 45 45 44 43 44 44 44 44 44 44 44 43 41 41 41 41 43 45 46 47 47 46 46 45 45 45 44 44 45 45 46 46 46 46 46 45 44 43 44 45 44 42 41 40 39 38 36 34 32 31 30 28 28 28 28 28 28 27 25 23 23
39 38 38 41 42 42 42 42 42 42 42 42 43 43 43 44 44 44 44 43 42 43 45 46 46 46 46 46 46 47 46 45 46 46 46 46 45 44 44 44 44 46 47 48 48 47 46 46 45 45 45 45 45 46 46 46 47 48 47 46 45 45 46 46 46 45 44 42 41 39 37 35 33 32 31 31 31 31 30 31 30 29 27 25 24
41 39 38 40 42 42 43 42 42 42 42 42 43 42 42 43 42 42 43 43 42 40 40 42 44 45 46 47 47 47 47 46 46 47 46 46 45 45 45 44 45 47 48 48 48 48 47 47 47 46 46 46 46 46 46 46 47 48 49 48 48 49 50 48 48 49 47 45 43 41 40 38 35 32 31 32 34 34 33 31 30 28 27 25 23
40 40 38 38 40 42 42 42 41 41 41 41 41 40 40 40 40 40 40 42 41 39 36 37 40 41 43 44 44 45 45 45 45 45 46 45 45 45 44 44 45 47 48 48 48 49 49 48 48 48 48 48 48 48 47 47 47 49 50 50 51 53 53 50 49 50 50 48 47 45 44 43 40 37 34 33 34 35 33 30 27 26 25 23 21
38 38 37 36 38 40 41 41 40 39 40 40 39 37 37 37 37 37 37 38 39 38 37 35 35 36 37 38 39 41 42 41 41 42 42 42 42 43 43 44 46 47 46 46 47 48 50 50 49 48 48 47 48 48 49 49 50 51 51 53 55 56 54 52 51 52 51 50 49 48 46 45 44 42 40 38 36 34 33 30 28 27 24 21 20
34 35 35 35 36 38 39 38 38 37 37 37 36 35 34 34 34 34 34 34 35 36 36 36 35 33 32 32 32 33 34 34 35 36 37 37 37 38 40 43 44 44 44 44 46 47 49 49 49 49 49 49 48 49 51 52 53 53 55 57 57 55 52 51 51 52 52 51 49 47 47 47 47 46 45 44 42 39 36 34 33 31 27 24 24
32 34 34 34 35 36 36 36 35 34 33 32 32 32 32 31 31 31 31 31 31 32 33 33 33 33 31 30 29 28 27 28 29 30 30 31 31 32 35 37 38 39 41 43 45 46 47 47 47 47 48 48 49 50 52 53 53 55 56 58 57 53 51 51 50 49 51 51 49 47 47 49 50 49 47 47 46 44 41 38 37 34 30 28 28
29 32 33 33 32 32 32 32 32 32 31 30 29 29 29 29 29 29 29 29 28 28 29 29 29 30 28 27 26 25 24 24 25 27 28 28 27 28 30 32 33 35 38 41 42 43 44 44 44 44 45 46 47 48 50 52 54 56 57 57 56 54 53 51 48 48 49 50 49 49 48 49 51 52 50 48 46 45 44 41 39 36 31 29 28
26 29 31 32 31 29 28 29 29 29 29 28 28 27 28 28 28 27 28 27 26 26 26 26 26 26 25 23 23 22 21 22 23 24 26 26 26 27 29 30 30 32 35 37 38 39 40 40 40 41 42 44 45 45 46 48 51 54 56 56 56 56 55 53 50 48 48 50 51 51 51 50 51 52 52 49 45 43 41 40 39 36 32 29 29
23 26 27 29 30 27 25 26 26 25 25 25 26 26 26 27 27 26 26 26 25 24 23 23 23 23 22 21 20 19 19 18 18 20 22 23 23 24 26 28 29 31 35 37 37 38 39 39 38 39 40 41 43 45 46 47 48 50 52 54 57 58 57 56 53 50 50 53 54 54 54 52 50 50 48 46 45 43 39 36 36 34 31 28 27
21 23 23 24 26 26 24 23 23 22 22 23 24 24 23 24 24 24 24 24 24 24 23 22 21 21 20 19 18 17 17 16 17 20 22 22 23 23 22 23 24 27 33 37 39 40 42 43 43 42 42 43 44 46 48 49 50 50 50 52 57 61 61 59 57 55 55 56 57 56 55 53 49 46 42 42 44 44 40 36 34 31 30 28 27
19 19 20 21 23 24 23 22 22 21 20 20 21 20 20 21 21 22 22 22 21 21 21 20 19 18 17 17 16 16 15 15 17 19 18 17 18 20 19 18 19 21 25 30 34 37 40 43 46 47 49 51 52 52 53 53 54 55 53 52 57 62 63 62 60 60 59 59 58 57 55 52 49 44 41 42 44 42 40 36 33 32 33 32 29
17 18 18 20 22 22 22 22 22 21 19 19 19 18 18 19 20 21 21 20 19 18 17 17 16 16 15 15 15 14 13 13 15 15 14 14 16 19 21 22 24 25 27 29 31 34 37 39 43 46 49 53 57 60 61 61 61 61 58 55 57 62 65 65 63 62 61 60 59 56 54 52 50 46 43 43 43 42 41 38 35 35 35 32 28
16 17 17 18 19 21 21 21 20 20 20 21 21 21 20 20 22 23 21 21 20 18 17 17 17 17 16 15 14 13 12 13 14 16 18 19 21 22 24 26 27 30 31 33 36 38 40 41 44 47 49 52 56 60 64 65 65 65 64 62 61 63 66 68 67 65 63 62 59 57 55 54 51 48 46 45 43 43 43 41 39 38 38 34 31
17 17 17 17 18 20 20 19 20 22 23 23 24 23 22 21 20 20 20 21 21 20 18 17 16 16 15 14 13 13 13 14 15 17 19 21 22 23 25 27 30 32 33 35 38 41 43 45 47 50 53 55 58 61 64 66 67 68 69 68 66 67 69 71 71 69 66 64 61 58 57 57 55 52 51 50 47 46 45 43 42 41 40 38 36
19 19 20 20 21 21 20 19 22 24 23 22 23 23 20 18 16 15 15 16 18 18 18 16 15 14 14 13 13 12 13 13 14 15 17 18 20 21 24 27 30 33 36 38 41 44 46 48 50 53 56 58 60 61 62 62 64 66 69 70 69 70 71 72 73 72 69 66 63 61 60 60 58 56 55 54 51 48 46 44 43 42 39 38 37
19 19 21 22 23 23 20 19 21 21 19 18 18 18 17 16 14 12 10 9 11 12 13 14 13 13 13 12 10 10 10 11 13 14 14 15 17 20 23 25 28 31 33 35 38 40 42 44 46 48 49 52 55 59 60 61 62 62 64 66 68 70 72 75 76 75 72 67 64 63 63 62 58 56 55 55 52 49 46 45 43 41 38 36 34
16 17 19 22 24 23 20 19 20 19 18 16 14 11 10 10 10 11 9 7 7 8 8 9 9 9 8 8 8 9 9 10 10 10 11 14 18 21 21 19 18 19 21 22 25 27 29 32 35 38 39 41 45 49 53 57 59 61 62 63 64 68 72 75 76 73 69 65 63 62 62 63 61 58 56 56 55 52 49 47 45 41 38 36 34
16 16 17 19 21 20 19 19 19 19 18 19 18 17 14 12 10 10 10 9 7 6 6 7 6 5 5 4 5 6 7 9 9 8 11 14 17 18 16 13 15 19 22 25 26 28 29 32 34 36 37 39 40 42 45 47 50 55 61 64 66 68 70 72 74 72 66 64 64 64 65 65 63 60 58 57 55 53 51 48 45 42 39 36 34
19 18 17 18 18 17 17 18 19 19 18 18 18 18 17 16 15 15 13 11 9 7 7 6 4 3 2 2 3 5 7 8 8 7 10 14 16 17 16 17 21 25 27 30 31 32 34 38 40 41 41 40 41 42 43 45 45 47 52 58 62 65 66 69 72 73 70 68 67 65 65 65 64 60 58 56 53 51 49 47 43 40 38 35 33
19 18 18 18 18 18 19 20 20 20 18 18 18 17 15 13 12 12 12 11 10 8 7 5 2 1 1 1 3 5 7 8 7 7 10 13 16 17 17 20 23 25 25 27 28 28 31 36 41 42 39 34 33 34 37 41 44 46 47 49 54 60 62 64 67 68 69 70 70 67 65 64 62 59 56 52 50 48 46 43 40 36 33 30 28
18 18 18 18 18 20 22 22 20 18 16 15 16 16 15 12 9 8 8 9 8 7 6 4 2 1 1 3 5 6 8 9 7 9 12 14 16 17 17 19 21 21 22 24 26 27 29 33 36 38 35 31 30 30 31 34 38 40 41 41 42 45 47 50 56 64 69 71 69 68 66 62 60 58 54 49 46 44 41 37 32 28 26 24 23
18 18 18 19 20 20 20 19 17 15 15 14 13 13 12 11 9 7 8 8 8 7 6 4 3 3 5 9 10 10 10 9 8 10 13 15 17 18 19 20 19 17 19 23 26 27 28 29 31 33 33 33 34 32 29 27 29 32 36 37 36 39 44 44 40 44 59 69 67 63 62 59 55 53 50 46 43 40 35 30 26 24 23 22 23
19 19 19 18 19 19 19 18 16 14 14 14 14 13 12 11 10 9 7 7 8 8 7 5 5 7 11 14 15 14 11 9 9 12 15 17 17 17 19 20 18 16 17 21 25 28 28 27 28 28 28 29 32 29 22 17 15 17 21 20 16 25 37 35 20 16 36 52 57 57 56 54 49 46 43 41 39 35 30 26 24 23 22 21 23
19 19 18 17 17 17 17 17 16 15 14 13 13 13 12 11 10 9 8 8 8 7 8 7 7 11 15 16 16 15 12 9 9 10 13 15 15 15 16 19 19 17 17 18 21 25 27 26 25 25 22 22 23 19 13 12 17 19 19 20 20 19 20 24 27 29 32 38 45 47 43 39 37 36 34 32 31 28 24 24 24 23 20 20 22
18 18 17 17 16 16 16 15 15 15 14 13 12 12 11 10 9 8 8 9 9 9 9 8 8 12 15 16 15 14 11 8 7 7 9 12 14 14 14 15 17 18 19 18 20 22 24 23 23 23 21 20 21 20 19 19 22 25 29 33 35 33 33 35 35 31 28 29 32 33 29 27 28 30 28 25 23 23 22 23 25 23 20 20 21
19 18 17 16 15 14 14 15 14 14 13 12 11 10 9 9 8 9 10 11 11 10 9 8 8 11 13 14 15 14 12 10 7 6 7 9 12 13 13 13 14 16 18 19 19 20 20 20 19 20 19 18 18 19 20 22 23 24 27 31 32 29 26 27 27 27 27 26 24 24 26 26 26 26 24 23 22 22 21 21 23 22 21 20 19
17 17 17 16 15 15 14 13 13 13 12 10 9 10 11 10 9 10 11 11 10 8 7 6 7 8 10 11 13 12 12 13 11 8 7 10 11 12 11 10 11 12 15 16 17 18 18 18 18 17 16 16 15 14 15 17 19 20 21 22 24 24 22 21 22 24 26 25 23 24 27 26 23 22 22 23 25 23 17 15 19 21 20 19 18
16 15 14 14 14 15 15 14 14 13 11 9 9 11 12 11 11 11 11 9 8 8 7 7 7 7 8 10 11 9 9 12 13 10 9 10 12 13 11 9 9 11 12 13 14 15 15 16 17 16 16 16 15 14 13 12 12 13 14 16 18 19 19 20 22 23 24 23 22 22 21 20 19 21 22 22 24 22 16 13 16 17 18 19 20
17 16 15 14 14 14 14 13 12 11 10 9 9 10 10 9 9 10 9 8 8 9 9 9 7 6 8 9 9 8 7 8 10 10 9 11 13 15 14 12 12 11 10 10 11 12 12 13 14 15 15 16 16 15 14 14 12 9 10 12 14 16 17 18 19 19 17 15 15 16 17 17 19 21 20 20 21 19 15 14 16 16 16 18 20
18 17 17 17 16 16 15 13 11 10 9 9 8 8 7 7 6 6 6 6 7 9 10 8 5 4 6 7 8 8 8 7 7 8 9 9 9 11 12 12 12 12 11 10 10 10 9 10 11 12 12 13 13 13 13 13 12 11 10 11 11 12 11 11 12 13 13 13 14 14 15 17 20 20 18 18 19 18 14 13 16 17 16 16 16
18 18 18 18 19 18 17 15 14 13 12 11 10 8 7 6 4 3 3 4 5 6 6 6 6 6 6 7 7 8 8 8 7 7 7 6 6 6 7 8 9 10 11 10 10 9 9 9 10 11 11 11 10 10 11 11 11 11 10 11 11 11 9 8 9 10 12 15 17 16 15 16 19 19 16 16 17 18 16 15 15 14 14 14 14
20 21 20 19 18 18 18 17 16 16 15 14 13 12 12 10 8 7 6 4 3 3 3 4 6 6 5 5 6 7 7 7 7 6 5 4 5 6 6 6 6 7 8 8 8 7 7 7 8 9 9 9 9 9 10 10 10 10 10 10 10 11 11 11 11 10 9 10 13 14 13 13 14 15 15 15 15 15 17 18 17 14 12 13 14
22 23 22 21 20 19 18 18 17 16 16 15 15 14 14 13 12 12 11 10 9 8 7 6 6 5 4 4 5 5 5 5 5 6 5 4 4 5 7 6 6 5 6 7 8 8 8 8 9 9 8 6 7 7 7 7 7 8 8 7 8 8 8 9 10 9 8 9 10 11 13 13 13 13 15 15 13 13 13 13 12 12 12 13 14
23 23 23 23 21 19 17 17 17 17 16 16 15 14 14 14 14 13 12 11 11 10 9 9 8 8 7 6 5 4 4 5 5 6 6 5 4 4 6 6 5 6 7 8 9 10 10 10 11 11 8 5 5 6 6 5 5 5 5 4 4 4 4 4 4 4 5 7 9 11 12 13 12 11 10 9 10 12 12 10 9 12 14 14 13
24 23 23 23 22 20 18 17 17 18 17 16 15 14 14 15 15 14 14 13 12 10 9 9 9 9 9 8 8 7 6 6 6 6 6 6 6 5 5 6 7 7 8 9 10 10 10 11 11 10 7 5 5 5 5 4 4 4 4 4 3 2 2 1 1 2 3 6 9 11 12 12 11 10 8 6 8 11 12 12 13 13 14 14 13
Wind_Direction
210 211 212 215 219 220 221 222 222 221 222 221 221 224 224 221 222 223 222 222 223 222 221 219 223 228 226 222 223 226 231 235 235 235 234 233 232 233 235 237 237 237 239 243 247 248 249 248 240 235 234 231 229 228 226 229 235 235 232 232 232 230 225 223 227 225 218 217 218 222 243 261 263 257 245 249 261 267 260 254 255 259 264 269 271
213 213 213 216 219 221 222 223 223 222 222 222 223 224 225 224 223 222 222 223 223 224 225 222 221 224 227 228 227 226 229 234 236 236 235 234 233 233 234 236 238 238 238 240 245 248 248 250 249 242 238 237 235 234 232 231 237 241 238 234 235 235 231 228 231 231 226 225 226 220 221 240 252 251 242 238 247 258 264 264 263 264 266 271 275
215 214 213 217 219 220 221 223 223 223 223 223 224 225 225 226 224 222 222 223 224 224 224 226 224 223 226 230 231 229 227 230 234 236 237 235 233 232 233 235 238 239 240 241 243 246 247 249 252 250 244 241 240 239 237 234 235 242 244 240 237 238 238 235 234 233 231 230 235 234 226 228 237 244 246 245 244 248 255 264 268 268 267 269 274
216 216 214 216 218 218 218 221 223 224 224 225 226 227 227 228 228 227 225 222 224 225 224 225 226 227 226 227 231 233 229 228 231 234 237 238 237 236 236 237 239 241 243 244 244 246 247 249 252 253 249 246 245 244 241 237 234 238 244 245 240 238 239 240 239 238 235 233 235 240 239 238 240 240 242 248 251 248 246 251 260 266 267 264 266
214 218 217 216 218 218 217 220 223 224 226 227 227 227 228 229 229 230 229 225 224 226 226 224 224 228 229 228 228 232 232 230 231 231 233 237 239 240 239 239 240 242 246 247 246 246 248 250 252 253 251 248 248 247 245 242 237 236 240 243 243 239 236 239 242 242 239 236 235 236 239 243 244 245 244 245 249 252 249 247 251 259 263 255 248
209 215 219 219 219 219 219 219 221 225 227 226 227 228 228 227 228 230 232 230 226 226 227 228 225 226 231 232 230 231 233 233 233 234 233 235 238 240 241 241 241 243 246 248 248 248 248 250 251 251 251 250 250 250 250 247 242 238 239 241 242 241 236 235 239 242 244 243 239 235 235 239 244 247 250 248 245 247 250 251 253 255 257 255 248
205 210 217 219 218 219 220 219 220 224 226 225 224 226 227 225 224 227 231 232 231 228 226 229 230 228 230 234 234 232 233 234 236 236 235 234 235 238 240 242 241 242 244 245 248 249 249 250 250 250 252 253 253 253 253 252 249 244 242 242 240 240 238 236 235 238 243 245 243 238 234 236 242 245 249 251 248 243 243 247 253 255 253 252 252
205 208 213 215 216 219 220 220 221 222 225 225 224 223 223 222 221 221 224 228 231 229 225 226 232 233 231 233 235 234 233 235 236 237 237 235 233 235 239 242 242 242 243 243 245 249 249 250 250 250 252 254 256 256 256 255 254 250 246 243 240 238 238 238 235 235 239 243 245 244 238 236 239 242 244 244 244 243 240 239 246 254 256 252 251
206 208 211 212 215 219 221 221 222 222 222 224 224 222 220 220 219 218 219 223 227 228 224 223 228 232 232 232 234 233 233 235 237 237 237 236 235 234 237 241 241 241 242 241 242 246 247 249 250 251 253 255 257 257 257 258 258 257 253 248 243 240 238 237 237 236 236 239 242 243 241 237 236 236 238 240 243 245 244 240 242 248 253 255 255
207 208 211 213 215 218 221 222 222 222 221 222 224 222 219 218 218 218 219 221 224 226 223 220 222 229 232 232 232 233 233 235 238 239 240 240 240 238 237 240 241 241 242 241 241 243 245 246 249 251 255 257 257 256 256 256 258 259 259 255 249 245 241 238 238 237 237 238 240 239 237 238 238 235 236 241 245 246 245 243 244 246 246 246 251
209 209 212 214 215 218 221 222 223 223 223 222 223 223 220 218 218 219 219 220 222 224 225 222 220 224 230 232 233 235 237 238 240 243 244 245 245 243 241 241 241 242 243 242 242 242 243 244 245 247 251 254 255 255 255 255 256 256 257 257 254 250 246 243 240 239 238 238 239 238 235 238 241 239 236 238 240 243 245 245 243 241 239 239 244
210 210 211 213 214 217 220 222 223 224 224 222 223 224 223 220 219 219 220 221 221 222 225 226 223 221 225 232 236 239 242 244 246 247 248 247 247 247 245 243 242 243 244 244 243 243 243 244 244 245 247 249 251 252 254 255 255 256 256 256 255 253 250 248 246 243 241 240 239 238 237 239 241 240 236 233 234 238 243 244 242 239 238 239 242
212 210 210 212 214 215 218 220 222 224 225 224 224 224 224 223 221 221 221 222 222 222 224 227 227 224 224 228 234 239 242 246 248 250 251 251 249 249 248 247 245 244 245 246 246 246 246 246 245 244 245 246 247 249 250 252 254 255 255 254 253 252 250 248 248 247 245 244 241 240 240 240 241 241 238 232 230 233 237 241 242 241 239 240 243
212 211 209 211 214 215 217 219 220 223 225 224 223 223 225 226 225 223 222 222 223 223 224 226 228 229 228 227 231 236 240 244 247 250 253 254 252 250 250 250 249 248 247 248 249 249 249 248 247 246 245 244 245 247 248 249 250 250 251 252 252 251 249 247 246 245 244 243 242 242 243 243 243 244 241 233 227 228 233 237 241 242 242 243 247
213 213 210 209 212 214 216 218 220 221 222 223 223 223 225 226 226 224 223 223 224 225 226 227 228 230 232 232 232 234 238 242 246 248 251 253 254 253 251 250 250 249 249 250 250 251 251 250 249 248 246 244 245 247 248 248 247 246 248 250 251 250 249 249 248 246 244 243 242 242 244 244 243 242 237 232 229 229 232 236 241 245 246 247 247
212 214 210 208 210 213 215 217 219 220 221 222 222 224 224 225 225 224 222 222 225 227 228 228 229 231 233 235 236 236 238 241 244 247 250 252 252 253 253 251 250 249 250 250 250 251 251 250 250 249 248 247 246 247 249 249 248 245 245 247 249 249 250 253 253 250 247 246 245 243 242 242 241 238 234 230 228 229 230 234 239 241 241 241 241
212 214 211 208 210 212 214 216 217 219 222 223 224 225 225 226 226 224 221 221 223 226 228 229 231 232 234 235 237 239 239 239 242 245 249 251 250 250 251 251 251 250 251 250 249 250 250 250 250 249 248 248 249 248 248 248 249 247 244 244 246 247 249 253 253 250 247 246 245 243 240 239 238 236 232 229 227 227 227 229 233 235 237 238 239
212 214 213 210 210 212 215 217 218 220 223 225 227 228 227 227 227 226 225 224 224 226 228 231 232 233 235 236 238 240 241 241 242 244 247 249 250 251 252 252 252 253 254 252 250 249 250 250 251 249 247 249 251 251 247 245 247 247 245 242 241 243 247 249 248 247 245 242 240 240 238 235 233 229 228 228 228 228 228 229 231 232 233 237 240
211 213 214 212 210 212 215 216 219 221 222 225 229 230 230 231 229 228 228 228 226 226 228 232 234 235 237 238 239 241 243 245 245 246 247 248 249 251 253 252 252 254 255 255 253 252 251 251 251 251 250 251 252 251 248 245 244 246 246 242 239 241 246 247 246 246 243 238 236 235 234 232 229 225 225 225 227 229 230 230 230 227 228 235 239
211 213 214 213 211 212 214 216 218 221 223 224 228 229 229 230 229 228 229 230 229 228 227 230 234 236 237 239 240 243 245 246 248 250 251 251 250 251 251 252 254 255 255 255 255 255 254 253 252 252 252 253 253 252 250 247 245 245 244 241 242 246 248 246 245 245 244 240 237 234 232 231 229 227 226 224 225 227 228 228 227 224 225 231 236
212 212 213 213 212 213 214 216 217 220 223 224 225 226 226 226 226 226 227 228 229 229 228 229 231 234 237 239 241 244 246 248 250 253 254 253 253 252 251 252 255 256 256 257 257 257 258 257 255 254 254 253 254 254 253 251 249 246 243 243 248 253 252 247 244 242 241 241 238 233 229 229 228 227 227 226 225 225 225 226 227 226 227 230 232
213 212 212 212 213 214 214 216 217 218 220 222 223 223 223 223 224 224 224 225 227 229 229 229 229 232 235 238 241 244 247 250 254 257 259 258 257 256 255 257 259 258 257 257 258 260 262 261 260 259 258 257 256 256 256 254 251 249 247 247 250 251 250 247 244 239 236 236 235 231 227 226 225 225 225 226 226 225 225 227 228 228 230 233 233
214 213 212 211 211 213 214 216 217 217 217 219 220 220 220 220 220 221 222 222 223 226 227 228 230 231 234 237 240 243 246 250 254 258 261 263 263 262 262 262 263 261 258 257 258 261 263 264 264 264 263 263 263 261 260 257 253 251 251 250 249 247 246 245 241 235 232 231 231 229 226 224 223 222 222 223 225 226 226 227 229 229 230 231 231
214 211 210 209 209 210 212 215 216 215 215 216 218 217 216 216 216 217 219 219 220 223 225 227 229 232 234 236 240 243 247 250 254 258 262 264 266 267 266 266 265 264 262 262 263 265 266 267 269 269 268 267 268 266 264 260 256 254 253 251 249 246 243 239 236 232 228 226 226 225 224 224 223 222 220 219 221 224 225 224 227 229 229 226 227
210 207 206 206 207 208 209 211 212 211 211 212 213 212 212 213 214 214 216 217 217 219 222 225 228 232 235 237 241 245 247 250 255 261 263 265 267 267 267 267 267 266 265 265 266 267 268 269 273 275 274 272 270 268 264 260 258 256 254 252 248 244 240 236 233 228 224 223 224 222 222 223 222 221 219 217 217 220 220 218 221 224 223 221 219
198 198 199 202 203 204 204 204 204 204 203 205 207 208 207 208 210 211 212 214 216 218 221 224 227 231 236 240 245 250 252 255 256 255 255 258 261 264 265 265 265 265 265 264 264 265 265 266 268 271 273 272 271 268 265 262 259 256 254 251 246 241 237 235 232 228 224 223 223 221 220 220 218 216 215 212 211 213 212 211 213 212 208 207 207
188 190 194 198 199 198 197 196 194 193 193 195 199 201 202 203 205 208 209 210 212 216 219 220 223 228 235 241 246 249 249 248 245 245 250 257 261 266 270 270 270 268 267 266 266 267 266 266 265 266 267 267 267 267 266 265 262 257 254 250 245 240 237 235 233 230 227 224 222 220 219 216 212 209 207 205 205 205 204 204 202 196 196 203 207
183 186 190 193 193 191 189 188 186 184 184 186 189 192 194 198 201 203 203 206 210 212 214 216 219 222 226 229 229 227 226 230 236 244 258 269 274 279 283 284 282 279 276 273 271 269 268 268 267 265 264 263 263 263 262 262 261 259 255 251 245 241 238 236 234 231 228 225 222 218 214 209 206 204 202 201 200 198 198 199 195 189 192 200 204
177 179 183 186 185 183 181 179 177 176 179 183 184 184 187 194 201 204 203 203 206 207 206 207 210 213 216 217 218 221 229 244 257 269 279 285 288 290 290 289 289 287 285 282 279 276 273 271 270 268 266 265 264 263 261 260 258 257 255 252 246 241 236 234 232 230 227 223 219 215 209 205 202 199 197 196 195 195 196 196 194 193 194 198 201
166 168 171 174 174 172 171 172 174 178 183 186 185 182 182 187 194 201 205 206 207 208 209 210 212 216 223 230 238 246 256 267 276 282 287 290 293 293 292 290 289 288 287 285 283 281 279 276 274 272 269 267 265 264 263 260 257 254 253 250 246 240 236 232 230 229 226 221 217 213 207 202 198 196 194 192 193 195 196 196 196 197 198 200 203
158 160 162 163 165 164 163 165 170 173 178 183 182 180 178 177 180 188 197 204 208 211 215 222 228 234 242 251 259 264 269 273 277 279 283 289 295 299 299 298 294 290 288 284 281 280 280 279 277 275 272 269 266 264 264 263 260 256 253 249 245 240 236 232 229 227 223 218 213 210 205 200 196 194 192 191 192 194 195 195 197 197 199 202 206
148 151 153 156 160 161 155 150 150 151 155 164 172 178 182 181 178 176 177 190 204 211 219 229 237 243 249 255 258 259 261 264 269 275 284 296 305 308 308 305 299 293 289 287 285 285 285 285 283 282 281 278 273 270 267 266 264 261 257 252 247 242 237 233 230 227 221 215 209 205 202 197 194 192 191 191 192 193 192 193 195 197 200 203 207
146 146 146 148 153 155 148 139 136 134 133 137 143 156 172 180 180 174 166 168 185 199 212 220 223 227 233 237 242 247 255 264 273 287 307 319 324 325 323 322 318 313 312 312 310 308 308 306 302 299 295 289 284 279 274 269 266 264 261 257 252 247 241 236 231 225 218 211 207 203 198 194 192 191 191 191 192 193 193 193 195 197 200 203 205
148 148 148 147 149 151 148 143 136 131 132 135 135 134 131 128 134 139 135 134 143 159 177 187 191 199 207 221 243 256 270 280 290 314 331 332 336 341 345 357 7 4 3 2 357 352 348 342 333 324 314 304 298 293 286 280 273 266 262 260 257 253 248 241 233 224 215 208 204 201 196 192 191 189 188 189 191 192 194 194 194 195 198 201 203
133 135 138 140 140 142 145 144 136 129 131 135 138 136 131 129 131 132 127 126 129 138 156 167 172 183 192 236 278 292 304 304 307 333 341 336 342 352 356 5 14 15 13 10 6 1 357 352 345 337 328 318 311 305 299 294 287 277 268 264 261 257 252 243 234 224 212 203 200 196 191 189 188 187 186 187 188 190 193 194 194 194 197 199 200
121 121 126 131 132 132 134 135 130 127 128 132 135 132 125 125 138 148 149 145 139 139 146 148 145 169 146 3 320 319 326 321 323 347 349 339 340 347 358 10 16 15 13 11 6 359 355 353 347 342 336 330 323 316 308 301 296 292 284 273 265 261 256 246 235 223 208 198 193 190 186 185 184 183 184 186 188 191 192 193 192 193 193 193 193
117 118 124 131 132 131 133 132 129 127 127 130 136 136 127 121 128 143 148 144 139 138 135 117 67 9 39 19 355 341 338 334 342 1 359 347 340 347 4 18 18 13 13 15 10 2 359 357 351 346 343 339 334 328 320 314 310 307 299 284 272 266 261 250 236 221 204 191 184 181 179 178 178 180 182 185 187 189 189 188 185 183 182 183 184
118 116 119 123 124 123 123 122 120 120 117 113 113 117 115 110 106 106 110 113 111 106 93 61 8 3 17 10 0 355 348 344 355 8 7 358 352 358 12 21 20 18 19 17 13 7 3 359 355 350 345 340 335 329 325 324 319 307 297 288 277 267 264 263 251 220 193 178 171 170 170 171 173 177 181 183 185 186 185 181 174 170 171 175 179
110 107 109 114 116 115 111 106 102 102 103 103 104 106 106 103 103 100 89 84 89 88 74 45 8 4 6 0 358 360 357 353 0 7 6 2 360 3 12 16 15 16 15 12 11 10 7 3 0 356 352 349 346 338 331 336 339 321 305 297 270 246 248 252 244 175 151 149 150 155 160 164 168 173 178 183 186 185 180 173 168 167 169 175 183
101 101 101 103 106 108 107 106 105 103 101 101 103 104 103 102 102 98 85 78 82 79 66 47 16 360 356 354 358 4 3 357 1 3 2 360 358 358 6 11 12 13 12 7 7 10 11 12 13 11 9 12 15 16 18 31 42 45 43 48 73 106 136 146 138 122 115 121 134 143 149 154 161 168 175 179 181 178 172 169 169 170 174 183 192
99 100 97 93 95 98 98 98 100 100 99 100 99 97 100 103 101 93 83 79 75 67 57 41 10 354 350 349 356 5 5 360 359 355 351 354 354 349 351 358 4 11 14 9 5 9 13 17 22 26 27 30 36 47 56 55 56 65 67 64 66 78 95 107 114 116 118 125 135 142 144 150 162 171 174 173 171 169 167 166 168 173 182 193 199
100 99 96 92 91 92 90 90 92 92 90 91 93 93 96 97 83 62 57 60 60 58 57 43 15 359 348 345 355 6 6 4 11 1 338 337 343 346 351 356 359 8 15 12 5 6 11 15 20 28 34 37 40 49 58 60 58 64 72 72 71 75 87 98 108 120 131 136 140 148 156 161 166 169 169 167 167 166 165 168 172 178 187 195 202
105 105 105 104 103 104 103 97 94 92 88 89 98 101 98 94 84 68 63 64 61 55 56 51 33 16 357 355 9 16 3 357 6 10 346 337 344 354 3 6 3 9 18 16 8 5 10 17 23 26 29 33 39 48 61 70 71 69 71 77 81 84 91 107 126 140 148 150 152 159 164 164 162 162 164 166 165 162 163 173 183 188 192 198 206
104 106 110 109 107 109 108 99 92 93 93 95 106 107 103 103 106 99 89 87 85 74 64 56 46 35 21 17 24 25 6 356 358 1 1 4 10 15 19 16 8 11 19 19 13 9 10 17 27 35 37 36 36 38 43 55 70 82 92 102 108 111 120 136 147 153 156 156 155 157 159 159 159 162 165 167 168 167 166 169 179 189 198 203 207
95 95 96 96 93 93 95 93 95 103 105 101 103 105 101 102 112 110 101 100 101 88 72 63 57 51 43 33 27 27 28 14 360 357 11 22 19 17 18 15 9 9 16 19 18 16 16 20 30 38 43 44 43 44 46 46 49 68 97 114 122 129 137 144 147 150 153 153 150 152 155 157 159 162 164 166 169 172 174 180 187 195 203 204 206
90 90 89 89 87 85 84 83 85 91 93 91 96 105 107 109 123 132 127 124 119 101 83 74 78 80 72 62 50 41 42 36 14 9 22 29 20 17 22 20 11 8 14 26 33 31 27 31 36 38 42 48 49 49 54 57 59 65 78 89 99 112 124 131 135 142 148 148 148 152 158 160 162 164 165 167 171 173 177 186 194 200 206 210 212
84 86 88 88 86 82 77 72 69 68 69 70 73 79 88 98 116 132 139 147 148 136 110 83 79 89 94 91 81 68 62 57 42 30 30 24 8 11 26 27 17 11 13 24 40 45 39 40 49 52 54 61 67 68 71 75 78 83 86 90 94 99 104 116 133 148 158 158 155 155 159 166 172 173 171 172 178 186 195 204 210 216 225 228 224
81 83 84 83 82 79 75 71 69 66 64 63 63 64 67 71 73 75 74 71 87 111 97 65 71 88 103 104 93 89 92 89 73 58 47 23 9 19 34 35 29 27 25 25 36 49 49 48 57 63 64 67 74 81 86 89 94 98 99 99 102 102 103 110 121 130 141 150 153 158 165 170 172 173 173 173 175 186 200 212 219 224 231 233 224
89 90 88 82 77 75 75 75 75 72 68 65 62 60 62 64 64 66 68 69 71 75 76 73 79 94 108 106 95 88 84 75 59 43 29 15 21 53 68 59 41 39 41 38 42 54 63 67 69 71 71 72 77 83 88 93 102 110 110 108 111 114 118 125 134 139 146 156 166 175 180 176 169 169 177 186 193 202 213 219 217 211 213 222 225
93 94 92 86 80 80 84 87 86 80 72 67 65 63 64 66 68 69 70 71 71 76 81 87 92 98 100 100 100 91 66 49 44 41 36 32 47 91 104 93 75 72 81 85 83 82 88 94 93 87 79 67 68 79 82 79 82 91 96 99 105 110 118 135 154 173 184 190 195 198 200 203 207 211 214 219 221 219 218 214 207 206 211 220 228
87 87 87 84 82 82 85 89 88 84 78 74 72 71 68 67 68 71 73 73 72 73 76 81 88 93 94 90 90 91 88 79 74 74 67 59 58 73 98 109 110 113 117 119 119 120 123 124 118 109 96 74 60 65 69 65 66 70 71 73 76 80 88 116 171 205 210 212 213 210 205 203 205 212 223 229 217 210 210 212 213 216 219 223 228
Height
1479 1482 1485 1488 1491 1494 1497 1500 1503 1506 1509 1512 1514 1517 1520 1522 1525 1527 1530 1532 1534 1536 1538 1540 1542 1543 1545 1546 1548 1549 1550 1551 1553 1554 1556 1557 1558 1559 1560 1560 1562 1562 1563 1563 1564 1565 1565 1566 1567 1567 1568 1569 1570 1570 1571 1572 1572 1573 1574 1574 1574 1575 1576 1576 1577 1577 1578 1579 1580 1580 1579 1579 1580 1580 1580 1580 1580 1580 1581 1581 1581 1581 1582 1582 1582
1475 1478 1481 1484 1487 1490 1494 1497 1500 1503 1506 1509 1511 1514 1516 1519 1522 1525 1527 1529 1531 1533 1535 1537 1539 1540 1542 1543 1545 1547 1547 1549 1550 1551 1552 1554 1555 1556 1557 1558 1559 1560 1560 1561 1561 1562 1563 1563 1564 1565 1566 1566 1567 1568 1569 1569 1570 1570 1571 1572 1572 1573 1574 1575 1575 1576 1576 1577 1577 1578 1579 1578 1578 1578 1579 1579 1579 1579 1579 1580 1580 1580 1581 1581 1581
1471 1474 1476 1479 1483 1486 1489 1493 1496 1499 1502 1505 1508 1511 1513 1516 1519 1522 1524 1526 1528 1530 1532 1534 1536 1538 1539 1541 1542 1544 1545 1546 1547 1548 1549 1551 1552 1553 1554 1555 1556 1557 1557 1558 1559 1560 1560 1561 1561 1562 1563 1563 1564 1565 1566 1567 1567 1567 1568 1570 1570 1571 1572 1573 1573 1574 1575 1575 1575 1576 1577 1577 1577 1577 1577 1577 1578 1578 1578 1578 1578 1579 1579 1579 1579
1468 1471 1473 1476 1479 1483 1486 1489 1492 1495 1498 1501 1504 1507 1510 1513 1515 1518 1521 1523 1525 1527 1529 1531 1533 1534 1536 1538 1539 1541 1542 1543 1544 1545 1546 1547 1549 1550 1552 1552 1553 1554 1554 1555 1556 1556 1557 1558 1558 1559 1560 1561 1561 1562 1563 1564 1565 1565 1566 1567 1568 1569 1570 1570 1571 1572 1573 1573 1574 1574 1575 1575 1575 1575 1576 1576 1576 1577 1577 1577 1577 1577 1577 1577 1577
1464 1467 1470 1473 1476 1479 1482 1485 1488 1490 1494 1497 1500 1504 1507 1509 1512 1514 1517 1520 1522 1524 1526 1528 1529 1531 1532 1534 1536 1537 1539 1540 1541 1542 1543 1544 1545 1547 1549 1550 1550 1551 1552 1552 1553 1553 1554 1554 1555 1556 1557 1558 1558 1559 1560 1561 1563 1563 1564 1564 1566 1567 1568 1568 1569 1570 1571 1571 1572 1572 1573 1573 1573 1573 1574 1574 1574 1575 1575 1576 1575 1575 1576 1576 1576
1461 1463 1466 1470 1472 1475 1478 1481 1483 1486 1490 1493 1497 1500 1503 1506 1508 1510 1512 1515 1518 1520 1522 1523 1525 1527 1528 1530 1532 1533 1535 1537 1537 1538 1540 1541 1542 1543 1545 1547 1547 1548 1548 1549 1549 1550 1550 1551 1552 1553 1553 1554 1555 1557 1558 1559 1560 1561 1562 1562 1563 1565 1566 1567 1567 1567 1568 1569 1569 1570 1571 1571 1571 1571 1571 1572 1572 1573 1573 1573 1573 1573 1573 1573 1573
1459 1460 1462 1466 1469 1471 1474 1477 1480 1483 1486 1490 1494 1497 1500 1503 1505 1507 1509 1511 1514 1516 1518 1519 1521 1523 1524 1526 1528 1529 1531 1533 1534 1535 1536 1537 1538 1540 1541 1543 1544 1544 1545 1545 1546 1547 1547 1548 1549 1549 1550 1551 1552 1554 1555 1556 1558 1559 1560 1560 1561 1562 1563 1564 1565 1565 1565 1566 1566 1567 1568 1568 1569 1569 1569 1570 1570 1570 1570 1570 1570 1570 1570 1570 1570
1456 1458 1459 1462 1465 1467 1470 1474 1477 1480 1484 1487 1490 1493 1496 1499 1501 1504 1506 1507 1509 1512 1514 1515 1517 1518 1520 1522 1524 1525 1527 1528 1530 1531 1533 1534 1536 1536 1538 1539 1540 1541 1542 1542 1543 1544 1544 1545 1545 1546 1547 1548 1549 1551 1552 1553 1555 1556 1557 1558 1559 1559 1560 1561 1561 1562 1562 1562 1563 1563 1565 1565 1566 1566 1567 1567 1566 1565 1565 1566 1566 1566 1567 1567 1567
1454 1455 1456 1458 1461 1464 1468 1471 1474 1478 1481 1483 1486 1489 1492 1495 1498 1501 1503 1504 1506 1508 1510 1512 1513 1514 1516 1518 1520 1522 1523 1524 1525 1527 1529 1531 1532 1533 1534 1535 1536 1538 1538 1539 1540 1540 1541 1542 1542 1542 1543 1544 1546 1547 1549 1550 1552 1553 1554 1555 1556 1556 1557 1557 1557 1558 1559 1559 1559 1559 1560 1561 1561 1562 1562 1562 1561 1561 1562 1562 1562 1563 1564 1564 1564
1451 1453 1453 1455 1458 1461 1464 1468 1471 1474 1477 1479 1482 1486 1489 1492 1495 1497 1500 1501 1503 1504 1507 1509 1510 1511 1512 1514 1516 1517 1518 1519 1521 1523 1525 1527 1529 1530 1530 1531 1532 1534 1535 1535 1536 1537 1537 1538 1539 1539 1539 1540 1542 1543 1545 1546 1548 1549 1550 1551 1552 1552 1553 1553 1553 1553 1554 1554 1554 1555 1555 1555 1556 1557 1557 1556 1557 1558 1559 1559 1559 1560 1561 1562 1562
1447 1449 1451 1453 1456 1458 1461 1464 1467 1470 1473 1476 1479 1482 1486 1489 1491 1494 1496 1498 1500 1502 1503 1506 1508 1509 1509 1510 1512 1513 1514 1515 1517 1519 1521 1523 1525 1526 1526 1527 1528 1529 1530 1531 1531 1532 1534 1535 1535 1536 1536 1536 1537 1539 1540 1542 1543 1544 1546 1546 1546 1547 1547 1547 1548 1548 1548 1548 1549 1549 1550 1550 1550 1551 1552 1552 1553 1554 1555 1556 1556 1557 1558 1558 1559
1443 1445 1448 1451 1453 1455 1458 1460 1463 1466 1470 1473 1476 1479 1482 1485 1487 1490 1492 1494 1496 1498 1500 1501 1504 1506 1507 1506 1507 1508 1509 1511 1512 1514 1516 1518 1520 1521 1522 1523 1524 1524 1525 1526 1527 1528 1529 1530 1531 1532 1532 1532 1533 1534 1535 1537 1538 1539 1540 1540 1540 1540 1541 1541 1542 1542 1542 1543 1543 1543 1543 1544 1545 1546 1547 1549 1550 1551 1552 1553 1554 1554 1554 1555 1555
1440 1442 1444 1447 1450 1452 1455 1457 1460 1463 1466 1469 1473 1475 1478 1480 1483 1485 1488 1490 1493 1495 1496 1498 1499 1502 1503 1503 1503 1503 1505 1506 1507 1509 1511 1513 1515 1517 1518 1519 1519 1519 1520 1521 1522 1523 1523 1524 1525 1526 1527 1528 1529 1529 1529 1530 1531 1532 1533 1533 1533 1533 1534 1535 1536 1537 1537 1537 1537 1537 1538 1539 1540 1541 1543 1546 1547 1548 1549 1550 1551 1551 1551 1551 1552
1437 1438 1440 1443 1446 1449 1451 1453 1456 1459 1462 1465 1469 1471 1474 1476 1478 1481 1484 1487 1489 1490 1492 1494 1495 1497 1499 1500 1500 1500 1500 1501 1503 1505 1506 1508 1510 1512 1513 1514 1514 1514 1515 1516 1517 1517 1518 1519 1520 1521 1523 1524 1524 1524 1524 1524 1525 1526 1526 1527 1527 1527 1529 1530 1531 1532 1533 1533 1533 1533 1534 1536 1537 1539 1542 1543 1544 1545 1546 1546 1547 1548 1548 1549 1550
1434 1435 1437 1440 1442 1445 1448 1450 1453 1455 1458 1461 1464 1466 1469 1471 1474 1478 1480 1482 1484 1485 1488 1490 1491 1492 1493 1495 1497 1497 1497 1497 1498 1500 1501 1503 1505 1507 1509 1510 1510 1510 1510 1510 1511 1512 1514 1515 1515 1516 1518 1519 1519 1519 1518 1518 1519 1520 1521 1522 1522 1524 1524 1525 1526 1527 1528 1529 1529 1530 1532 1534 1535 1537 1539 1540 1541 1542 1543 1543 1544 1545 1546 1547 1548
1432 1432 1434 1436 1439 1442 1445 1447 1450 1452 1455 1458 1460 1462 1465 1467 1470 1473 1476 1478 1480 1481 1483 1485 1486 1488 1489 1491 1492 1492 1493 1494 1494 1495 1496 1498 1501 1503 1504 1505 1506 1506 1505 1506 1506 1507 1509 1510 1511 1512 1513 1514 1514 1514 1514 1515 1515 1515 1515 1517 1519 1520 1520 1520 1521 1522 1524 1525 1526 1527 1529 1530 1532 1534 1535 1536 1537 1538 1540 1540 1541 1542 1543 1544 1544
1428 1429 1431 1433 1436 1439 1441 1444 1446 1449 1452 1454 1455 1458 1461 1463 1466 1469 1471 1474 1476 1477 1478 1480 1482 1483 1485 1486 1487 1487 1489 1491 1491 1491 1492 1493 1496 1497 1499 1500 1501 1501 1501 1502 1502 1503 1504 1505 1506 1507 1507 1508 1509 1510 1511 1512 1512 1511 1512 1513 1514 1514 1513 1513 1514 1515 1516 1519 1520 1523 1525 1526 1527 1528 1530 1532 1533 1534 1535 1536 1537 1538 1539 1540 1541
1425 1427 1428 1430 1433 1436 1438 1440 1443 1446 1448 1450 1452 1455 1458 1460 1463 1465 1468 1470 1472 1474 1475 1476 1478 1480 1480 1482 1482 1483 1485 1487 1488 1488 1489 1490 1491 1492 1494 1496 1497 1497 1497 1498 1499 1500 1500 1500 1500 1501 1501 1502 1503 1504 1506 1507 1507 1507 1507 1508 1508 1507 1505 1506 1507 1506 1508 1511 1514 1517 1519 1520 1521 1522 1524 1526 1527 1528 1530 1531 1533 1534 1536 1537 1538
1421 1424 1426 1428 1431 1433 1435 1437 1440 1442 1445 1447 1449 1452 1455 1458 1460 1462 1464 1466 1469 1471 1473 1473 1474 1475 1476 1478 1479 1480 1481 1482 1484 1485 1486 1487 1488 1489 1491 1492 1492 1491 1492 1494 1496 1496 1496 1495 1495 1495 1496 1497 1498 1499 1500 1501 1501 1500 1500 1501 1501 1498 1497 1500 1501 1501 1502 1504 1507 1509 1510 1512 1515 1517 1519 1520 1522 1523 1525 1528 1530 1532 1533 1534 1536
1419 1423 1425 1427 1429 1431 1433 1434 1437 1439 1442 1444 1447 1449 1452 1454 1457 1459 1461 1463 1465 1467 1469 1470 1471 1472 1473 1474 1475 1476 1477 1479 1480 1481 1482 1484 1485 1486 1488 1487 1486 1487 1489 1490 1491 1490 1490 1490 1491 1491 1491 1492 1493 1494 1494 1493 1493 1493 1493 1492 1489 1488 1491 1495 1497 1497 1497 1497 1499 1501 1504 1506 1509 1511 1513 1515 1516 1518 1521 1523 1526 1527 1530 1533 1535
1418 1421 1423 1425 1427 1429 1431 1433 1434 1437 1439 1442 1444 1447 1449 1451 1453 1455 1457 1459 1461 1463 1465 1467 1468 1469 1470 1471 1472 1473 1474 1476 1477 1477 1478 1480 1481 1483 1484 1483 1483 1485 1487 1487 1486 1485 1485 1485 1485 1486 1486 1487 1488 1487 1487 1486 1486 1486 1485 1481 1480 1482 1487 1490 1491 1492 1493 1492 1492 1495 1497 1499 1501 1503 1505 1507 1509 1511 1514 1517 1519 1521 1524 1528 1531
1416 1418 1420 1423 1425 1427 1429 1431 1433 1435 1437 1439 1442 1444 1446 1448 1450 1452 1454 1456 1458 1459 1461 1463 1465 1466 1468 1469 1470 1471 1472 1474 1474 1474 1475 1476 1478 1479 1480 1480 1481 1483 1483 1482 1481 1480 1480 1480 1480 1481 1481 1482 1482 1481 1480 1480 1481 1480 1478 1476 1478 1481 1483 1484 1485 1487 1487 1487 1487 1488 1489 1490 1492 1494 1496 1498 1501 1504 1507 1510 1512 1515 1517 1521 1526
1414 1416 1418 1421 1423 1426 1428 1430 1431 1433 1435 1437 1439 1441 1443 1446 1448 1450 1452 1453 1455 1457 1459 1460 1462 1464 1465 1467 1468 1469 1471 1472 1472 1472 1473 1473 1474 1476 1476 1476 1477 1478 1477 1476 1476 1476 1476 1476 1476 1476 1477 1476 1476 1475 1474 1474 1475 1474 1472 1473 1475 1476 1477 1479 1479 1480 1480 1480 1480 1480 1480 1481 1483 1485 1487 1490 1493 1496 1501 1504 1506 1509 1512 1514 1520
1412 1414 1416 1419 1422 1425 1427 1429 1430 1431 1433 1435 1437 1439 1441 1443 1445 1447 1449 1451 1453 1455 1456 1458 1460 1461 1463 1464 1466 1468 1469 1470 1470 1470 1470 1471 1472 1472 1472 1471 1472 1472 1471 1471 1471 1472 1471 1471 1471 1471 1471 1470 1469 1469 1469 1468 1468 1467 1467 1468 1470 1470 1471 1472 1471 1472 1472 1472 1472 1471 1471 1472 1474 1476 1479 1483 1486 1490 1495 1498 1501 1504 1506 1508 1513
1410 1412 1415 1417 1420 1423 1426 1427 1429 1430 1431 1433 1434 1436 1439 1441 1443 1445 1447 1449 1451 1453 1454 1456 1457 1459 1461 1462 1464 1465 1466 1467 1469 1468 1468 1468 1468 1467 1467 1467 1468 1468 1467 1466 1467 1467 1466 1466 1466 1466 1465 1464 1463 1463 1462 1460 1460 1460 1461 1462 1463 1463 1464 1464 1464 1464 1463 1461 1460 1461 1463 1464 1466 1468 1473 1478 1481 1483 1487 1491 1494 1498 1501 1503 1506
1409 1411 1414 1416 1420 1422 1424 1426 1428 1429 1430 1431 1433 1435 1437 1439 1441 1443 1445 1447 1449 1451 1452 1454 1455 1457 1459 1460 1462 1463 1464 1466 1466 1464 1463 1463 1463 1463 1463 1463 1464 1464 1463 1463 1463 1462 1461 1461 1461 1461 1460 1458 1457 1456 1454 1452 1452 1452 1452 1453 1454 1454 1454 1455 1455 1455 1453 1451 1451 1452 1455 1458 1461 1465 1469 1472 1473 1475 1479 1483 1487 1491 1495 1497 1499
1409 1411 1414 1416 1419 1421 1423 1425 1426 1428 1429 1430 1432 1434 1435 1438 1440 1442 1444 1445 1447 1448 1450 1452 1453 1455 1456 1458 1460 1461 1462 1462 1461 1459 1458 1459 1459 1459 1459 1460 1460 1460 1459 1459 1458 1457 1457 1456 1456 1455 1454 1452 1450 1448 1446 1445 1444 1443 1443 1445 1445 1444 1444 1444 1444 1444 1444 1445 1445 1446 1449 1453 1457 1460 1463 1464 1466 1468 1472 1476 1480 1485 1489 1492 1494
1408 1411 1414 1416 1418 1420 1422 1423 1425 1427 1428 1429 1430 1432 1434 1436 1438 1440 1441 1443 1445 1447 1448 1450 1451 1453 1454 1455 1456 1457 1458 1458 1457 1456 1456 1457 1457 1457 1456 1456 1456 1455 1455 1455 1453 1452 1451 1451 1449 1448 1446 1444 1442 1440 1438 1437 1436 1435 1435 1436 1436 1435 1435 1436 1435 1435 1436 1437 1438 1440 1443 1446 1450 1453 1457 1459 1461 1464 1467 1470 1474 1479 1482 1486 1490
1409 1411 1413 1415 1417 1419 1421 1422 1424 1425 1426 1426 1427 1429 1432 1434 1435 1437 1439 1441 1443 1445 1446 1447 1448 1449 1450 1451 1452 1454 1454 1455 1454 1455 1454 1454 1454 1454 1453 1453 1452 1451 1450 1449 1447 1446 1445 1444 1442 1440 1438 1436 1433 1430 1428 1427 1426 1426 1425 1425 1424 1424 1425 1425 1424 1424 1426 1428 1429 1432 1435 1438 1441 1445 1449 1453 1456 1459 1461 1464 1467 1472 1476 1479 1483
1409 1411 1413 1415 1417 1419 1420 1422 1423 1423 1423 1424 1425 1427 1429 1431 1433 1436 1438 1440 1442 1443 1444 1445 1446 1447 1448 1449 1450 1451 1452 1453 1453 1453 1452 1451 1451 1450 1449 1449 1448 1446 1445 1444 1441 1439 1437 1436 1434 1432 1430 1428 1424 1421 1417 1416 1415 1414 1413 1412 1412 1412 1412 1412 1411 1412 1415 1417 1419 1423 1427 1430 1433 1436 1439 1443 1448 1452 1456 1459 1461 1464 1469 1473 1477
1408 1410 1411 1413 1415 1417 1419 1419 1419 1419 1420 1422 1424 1425 1427 1430 1432 1435 1437 1439 1440 1442 1443 1444 1444 1445 1446 1447 1448 1449 1450 1450 1450 1450 1450 1449 1449 1448 1447 1446 1444 1442 1440 1438 1436 1433 1431 1429 1427 1424 1422 1419 1416 1413 1411 1409 1407 1405 1403 1401 1400 1400 1400 1400 1400 1401 1403 1404 1407 1411 1415 1420 1424 1428 1431 1435 1440 1445 1450 1454 1457 1460 1463 1468 1472
1407 1409 1410 1412 1413 1414 1415 1416 1417 1418 1420 1422 1424 1425 1427 1429 1431 1434 1436 1437 1439 1440 1441 1442 1443 1444 1445 1446 1446 1447 1447 1448 1448 1448 1447 1447 1447 1446 1445 1443 1441 1439 1436 1434 1431 1428 1426 1423 1419 1417 1415 1412 1408 1406 1405 1403 1400 1399 1398 1395 1392 1391 1390 1389 1389 1389 1390 1393 1397 1402 1406 1412 1418 1425 1430 1433 1436 1440 1444 1449 1453 1456 1459 1464 1468
1407 1409 1410 1411 1412 1413 1414 1415 1417 1419 1420 1422 1424 1426 1427 1429 1431 1433 1435 1436 1438 1439 1440 1441 1441 1442 1443 1444 1445 1445 1445 1445 1445 1445 1446 1445 1444 1443 1442 1440 1437 1435 1432 1429 1426 1424 1421 1418 1414 1411 1408 1404 1400 1398 1396 1394 1392 1391 1391 1388 1386 1383 1381 1380 1380 1380 1382 1386 1393 1398 1401 1405 1409 1416 1423 1428 1431 1434 1438 1442 1447 1451 1456 1461 1465
1408 1409 1410 1411 1412 1413 1415 1416 1417 1419 1420 1422 1423 1425 1427 1429 1431 1433 1434 1435 1437 1438 1438 1439 1440 1441 1442 1443 1443 1443 1444 1444 1443 1444 1444 1443 1442 1440 1438 1436 1433 1430 1427 1424 1421 1419 1416 1413 1409 1405 1400 1396 1393 1390 1386 1384 1383 1381 1379 1378 1377 1375 1374 1374 1373 1372 1373 1377 1384 1388 1392 1396 1399 1405 1412 1419 1424 1428 1433 1438 1442 1446 1451 1457 1462
1409 1410 1410 1411 1412 1414 1415 1416 1417 1419 1421 1422 1424 1426 1428 1430 1431 1432 1433 1434 1435 1437 1438 1439 1440 1440 1441 1442 1442 1442 1442 1442 1442 1442 1442 1441 1439 1437 1435 1432 1429 1426 1423 1420 1418 1415 1412 1408 1403 1399 1393 1388 1385 1382 1379 1376 1374 1372 1370 1368 1367 1367 1366 1365 1363 1360 1360 1364 1371 1379 1386 1391 1396 1402 1409 1415 1420 1425 1430 1435 1438 1442 1447 1454 1459
1411 1411 1412 1413 1413 1414 1416 1417 1419 1420 1422 1423 1425 1427 1428 1429 1430 1431 1432 1434 1435 1436 1437 1438 1439 1439 1440 1441 1441 1441 1441 1441 1440 1440 1440 1438 1436 1434 1431 1429 1427 1424 1422 1420 1417 1414 1410 1406 1400 1394 1389 1383 1379 1376 1372 1369 1367 1365 1363 1361 1359 1358 1357 1357 1356 1353 1350 1351 1358 1369 1380 1387 1393 1400 1409 1416 1421 1425 1430 1434 1437 1441 1446 1452 1457
1412 1412 1412 1413 1414 1415 1417 1418 1420 1421 1423 1424 1426 1427 1429 1430 1431 1432 1433 1434 1435 1436 1437 1438 1438 1438 1439 1439 1440 1440 1439 1439 1439 1438 1437 1436 1434 1432 1429 1427 1425 1423 1421 1419 1417 1413 1409 1404 1399 1393 1387 1382 1377 1372 1368 1365 1362 1360 1358 1356 1353 1350 1348 1348 1350 1348 1343 1341 1346 1357 1369 1380 1389 1396 1406 1416 1422 1426 1431 1435 1438 1442 1448 1452 1455
1411 1412 1413 1414 1415 1417 1418 1420 1421 1423 1424 1426 1428 1429 1430 1431 1432 1433 1434 1435 1435 1436 1437 1437 1437 1437 1437 1437 1437 1437 1437 1437 1437 1436 1436 1434 1432 1431 1429 1427 1425 1423 1421 1419 1417 1413 1409 1404 1398 1392 1386 1382 1378 1373 1369 1365 1362 1358 1355 1352 1350 1345 1341 1341 1345 1343 1335 1332 1341 1353 1364 1375 1387 1396 1406 1415 1422 1427 1432 1435 1439 1444 1448 1451 1454
1411 1413 1414 1415 1416 1418 1419 1421 1423 1425 1426 1428 1429 1431 1432 1433 1434 1434 1434 1435 1435 1436 1437 1437 1436 1436 1436 1436 1436 1435 1435 1435 1434 1434 1434 1433 1431 1430 1429 1427 1425 1423 1421 1420 1417 1414 1410 1405 1399 1393 1388 1383 1379 1375 1371 1368 1365 1360 1355 1350 1345 1339 1336 1338 1345 1348 1341 1334 1341 1355 1367 1378 1389 1400 1409 1417 1424 1428 1433 1436 1439 1443 1447 1450 1454
1413 1415 1416 1417 1418 1420 1421 1423 1424 1426 1428 1429 1430 1432 1433 1434 1434 1434 1435 1435 1435 1436 1436 1436 1436 1436 1436 1436 1435 1434 1433 1433 1433 1433 1433 1432 1431 1430 1429 1427 1425 1423 1422 1420 1418 1415 1411 1407 1402 1397 1392 1387 1383 1379 1376 1372 1368 1364 1360 1356 1350 1344 1340 1340 1347 1357 1359 1356 1359 1371 1382 1390 1398 1406 1414 1421 1426 1430 1434 1437 1440 1442 1446 1450 1454
1415 1417 1418 1419 1420 1421 1423 1425 1426 1428 1429 1431 1432 1433 1434 1434 1434 1434 1434 1434 1434 1434 1435 1435 1436 1436 1436 1435 1435 1434 1433 1432 1432 1432 1432 1431 1431 1430 1428 1427 1426 1424 1422 1420 1418 1416 1414 1410 1406 1401 1397 1393 1390 1387 1383 1379 1375 1371 1368 1365 1362 1360 1360 1358 1359 1367 1376 1380 1385 1391 1396 1400 1405 1412 1419 1425 1429 1433 1436 1438 1440 1443 1447 1450 1454
1417 1419 1420 1422 1423 1424 1426 1427 1428 1430 1431 1432 1433 1434 1435 1434 1434 1433 1432 1432 1433 1433 1435 1436 1436 1436 1436 1435 1435 1434 1433 1432 1432 1432 1432 1431 1431 1430 1428 1427 1426 1424 1422 1420 1419 1417 1415 1413 1410 1406 1402 1398 1396 1393 1390 1388 1385 1382 1377 1373 1371 1372 1375 1377 1378 1382 1388 1393 1397 1400 1402 1404 1409 1416 1422 1426 1431 1434 1436 1439 1441 1444 1447 1450 1453
1418 1419 1421 1423 1424 1426 1427 1429 1430 1431 1432 1433 1433 1434 1434 1433 1433 1432 1432 1432 1434 1435 1436 1437 1437 1436 1436 1435 1435 1434 1433 1432 1432 1432 1431 1431 1430 1429 1428 1427 1426 1425 1423 1421 1420 1418 1416 1414 1412 1409 1406 1403 1401 1399 1396 1394 1392 1389 1386 1382 1380 1380 1383 1386 1389 1393 1397 1400 1402 1404 1406 1409 1413 1419 1423 1428 1431 1435 1437 1440 1442 1444 1447 1450 1452
1420 1421 1423 1424 1425 1426 1428 1429 1430 1432 1432 1432 1432 1432 1431 1431 1431 1431 1432 1433 1434 1435 1436 1436 1436 1436 1435 1435 1434 1434 1434 1433 1432 1432 1432 1431 1430 1429 1428 1427 1426 1425 1424 1422 1421 1420 1418 1416 1414 1411 1409 1406 1404 1403 1401 1399 1397 1395 1393 1390 1388 1388 1390 1393 1396 1399 1403 1405 1407 1409 1411 1413 1417 1421 1425 1429 1432 1436 1438 1441 1443 1445 1448 1450 1452
1422 1424 1425 1426 1427 1428 1429 1430 1431 1431 1431 1431 1431 1431 1430 1431 1431 1432 1433 1434 1434 1435 1435 1435 1434 1434 1434 1435 1434 1434 1434 1434 1433 1433 1432 1431 1431 1430 1429 1428 1427 1426 1425 1424 1423 1421 1419 1418 1416 1413 1411 1410 1408 1407 1406 1405 1404 1402 1401 1399 1397 1397 1398 1400 1403 1406 1408 1411 1412 1414 1416 1418 1420 1423 1427 1430 1434 1437 1440 1442 1444 1446 1447 1449 1451
1425 1426 1427 1428 1429 1430 1431 1431 1431 1431 1430 1430 1430 1431 1431 1432 1432 1432 1433 1433 1433 1433 1432 1432 1432 1432 1433 1434 1434 1434 1434 1435 1434 1433 1432 1432 1431 1430 1429 1429 1428 1427 1426 1425 1424 1423 1421 1420 1418 1416 1414 1413 1412 1411 1410 1409 1408 1408 1407 1406 1406 1405 1406 1408 1410 1411 1413 1415 1417 1419 1420 1422 1424 1426 1429 1431 1434 1437 1440 1442 1443 1445 1447 1448 1451
1427 1427 1428 1429 1430 1431 1432 1432 1432 1432 1432 1432 1432 1432 1432 1432 1432 1433 1433 1433 1432 1431 1430 1430 1431 1432 1433 1433 1433 1433 1433 1434 1434 1434 1433 1432 1431 1430 1430 1429 1429 1428 1428 1427 1425 1424 1423 1422 1420 1419 1417 1416 1415 1415 1414 1413 1413 1413 1412 1412 1412 1412 1412 1413 1414 1416 1417 1418 1419 1422 1424 1425 1427 1428 1431 1432 1435 1437 1439 1440 1442 1444 1446 1448 1450
1427 1428 1428 1429 1430 1432 1433 1434 1434 1434 1434 1434 1434 1434 1434 1433 1433 1433 1433 1432 1431 1430 1430 1430 1431 1432 1432 1432 1432 1432 1432 1433 1433 1433 1432 1432 1431 1431 1430 1430 1430 1429 1429 1428 1427 1426 1425 1423 1422 1421 1420 1419 1418 1418 1417 1417 1417 1417 1416 1417 1417 1416 1417 1417 1418 1420 1421 1421 1422 1424 1426 1427 1428 1430 1432 1433 1434 1436 1438 1439 1441 1444 1447 1449 1450
1427 1428 1429 1430 1432 1433 1434 1435 1435 1436 1437 1437 1437 1436 1435 1435 1434 1434 1433 1432 1431 1430 1431 1432 1432 1432 1433 1432 1432 1432 1432 1432 1433 1433 1433 1433 1432 1431 1430 1430 1430 1430 1429 1429 1428 1427 1426 1425 1425 1423 1422 1421 1421 1421 1421 1420 1420 1420 1420 1421 1421 1421 1422 1422 1422 1423 1424 1425 1425 1427 1428 1429 1430 1431 1432 1433 1434 1435 1437 1440 1442 1445 1447 1449 1450
1428 1429 1430 1431 1433 1434 1435 1435 1436 1437 1438 1438 1438 1437 1437 1437 1436 1435 1434 1432 1432 1432 1432 1433 1433 1433 1433 1433 1432 1432 1432 1432 1433 1434 1434 1434 1433 1431 1430 1430 1430 1430 1430 1429 1429 1429 1428 1428 1427 1426 1425 1423 1423 1423 1423 1423 1423 1423 1423 1423 1424 1424 1425 1425 1425 1426 1426 1427 1427 1428 1429 1430 1430 1431 1432 1433 1435 1436 1438 1441 1443 1444 1447 1448 1449
1431 1432 1433 1433 1434 1435 1436 1436 1437 1437 1438 1438 1439 1439 1439 1439 1438 1436 1434 1433 1433 1434 1434 1433 1433 1433 1433 1433 1433 1432 1432 1433 1434 1434 1434 1434 1433 1432 1431 1430 1430 1429 1429 1429 1429 1429 1429 1428 1428 1427 1426 1426 1426 1426 1426 1425 1425 1425 1425 1425 1425 1425 1425 1425 1426 1426 1427 1427 1428 1428 1429 1430 1431 1432 1433 1434 1435 1436 1438 1441 1442 1444 1445 1447 1448